Check out our new BloomSky Weather System.

Active alerts


No alerts


Thunder radar  blitzortung!


Rain radar more information rain snow radar


Visit our other weather sites:

Template documentation
and downloads

And another site



Weather Underground History page Text

Daily Summary for August 13, 2017 Units:  English    Metric   Both
« Previous Day
Next Day »
Daily Weekly Monthly Yearly Custom
  High: Low: Average:
Temperature: 97.5 °F 79.2 °F 87.9 °F
Dew Point: 81.3 °F 75.6 °F 78.1 °F
Humidity: 95 % 51 % 74 %
Wind Speed: 10.0 mph 0.0 mph 3.3 mph
Wind Gust: 13.0 mph - -
Wind:- - South
Pressure: 29.94 in 29.81 in -
Precipitation: 0.00 in    
Historical Graphs
 
 
Tabular Data for August 13, 2017
Time Temperature Dew Point Pressure Wind Wind Speed Wind Gust Humidity Rainfall Rate (Hourly)
00:04 83.5 °F 76.6 °F 29.92 in SSE 1.0 mph 6.0 mph 80 % 0.00 in
00:09 83.1 °F 76.6 °F 29.92 in SSW 2.0 mph 6.0 mph 81 % 0.00 in
00:14 82.9 °F 76.5 °F 29.92 in SSE 1.0 mph 6.0 mph 81 % 0.00 in
00:19 82.8 °F 76.3 °F 29.92 in SSW 3.0 mph 5.0 mph 81 % 0.00 in
00:24 82.8 °F 76.3 °F 29.92 in SE 2.0 mph 3.0 mph 81 % 0.00 in
00:29 82.8 °F 76.3 °F 29.91 in SE 3.0 mph 5.0 mph 81 % 0.00 in
00:34 82.8 °F 76.6 °F 29.91 in South 3.0 mph 5.0 mph 82 % 0.00 in
00:39 82.8 °F 76.6 °F 29.91 in SSE 1.0 mph 6.0 mph 82 % 0.00 in
00:44 82.6 °F 76.5 °F 29.91 in South 3.0 mph 6.0 mph 82 % 0.00 in
00:49 82.6 °F 76.5 °F 29.91 in SSE 2.0 mph 6.0 mph 82 % 0.00 in
00:54 82.6 °F 76.8 °F 29.90 in South 2.0 mph 5.0 mph 83 % 0.00 in
00:59 82.4 °F 76.6 °F 29.90 in South 2.0 mph 5.0 mph 83 % 0.00 in
01:04 82.2 °F 76.8 °F 29.91 in South 2.0 mph 5.0 mph 84 % 0.00 in
01:09 82.0 °F 76.6 °F 29.91 in SSE 2.0 mph 5.0 mph 84 % 0.00 in
01:14 82.0 °F 77.0 °F 29.91 in South 1.0 mph 4.0 mph 85 % 0.00 in
01:19 81.9 °F 76.8 °F 29.91 in SSE 2.0 mph 4.0 mph 85 % 0.00 in
01:24 81.9 °F 77.2 °F 29.91 in SSE 2.0 mph 4.0 mph 86 % 0.00 in
01:29 81.9 °F 77.2 °F 29.91 in Calm   4.0 mph 86 % 0.00 in
01:34 81.7 °F 77.4 °F 29.91 in South 3.0 mph 4.0 mph 87 % 0.00 in
01:39 81.5 °F 77.2 °F 29.91 in South 1.0 mph 3.0 mph 87 % 0.00 in
01:44 81.3 °F 77.4 °F 29.91 in South 2.0 mph 3.0 mph 88 % 0.00 in
01:49 81.3 °F 77.4 °F 29.90 in SE 2.0 mph 3.0 mph 88 % 0.00 in
01:54 81.3 °F 77.4 °F 29.90 in SSE 1.0 mph 3.0 mph 88 % 0.00 in
01:59 81.3 °F 77.4 °F 29.91 in SSW 3.0 mph 4.0 mph 88 % 0.00 in
02:04 81.3 °F 77.4 °F 29.90 in SSE 2.0 mph 4.0 mph 88 % 0.00 in
02:09 81.1 °F 77.5 °F 29.90 in South 3.0 mph 4.0 mph 89 % 0.00 in
02:14 81.3 °F 77.7 °F 29.90 in SSW 3.0 mph 5.0 mph 89 % 0.00 in
02:19 81.3 °F 77.7 °F 29.90 in South 4.0 mph 5.0 mph 89 % 0.00 in
02:24 81.1 °F 77.5 °F 29.89 in SE 3.0 mph 6.0 mph 89 % 0.00 in
02:29 81.1 °F 77.5 °F 29.89 in SSE 3.0 mph 6.0 mph 89 % 0.00 in
02:34 81.1 °F 77.5 °F 29.89 in South 4.0 mph 7.0 mph 89 % 0.00 in
02:39 81.1 °F 77.9 °F 29.89 in SE 3.0 mph 7.0 mph 90 % 0.00 in
02:44 81.1 °F 77.9 °F 29.89 in South 3.0 mph 7.0 mph 90 % 0.00 in
02:45 81.1 °F 77.9 °F 29.89 in SSW 2.0 mph 7.0 mph 90 % 0.00 in
02:50 81.0 °F 77.7 °F 29.89 in SSW 3.0 mph 6.0 mph 90 % 0.00 in
02:55 81.0 °F 77.7 °F 29.89 in ESE 3.0 mph 6.0 mph 90 % 0.00 in
03:00 81.1 °F 77.9 °F 29.89 in SE 3.0 mph 5.0 mph 90 % 0.00 in
03:05 81.1 °F 77.9 °F 29.89 in SE 4.0 mph 6.0 mph 90 % 0.00 in
03:10 81.1 °F 77.9 °F 29.88 in ESE 4.0 mph 6.0 mph 90 % 0.00 in
03:15 81.1 °F 77.9 °F 29.88 in SSE 1.0 mph 6.0 mph 90 % 0.00 in
03:20 81.1 °F 77.9 °F 29.89 in SW 1.0 mph 6.0 mph 90 % 0.00 in
03:25 81.0 °F 78.1 °F 29.89 in SSW 2.0 mph 5.0 mph 91 % 0.00 in
03:30 81.0 °F 78.1 °F 29.89 in SSW 1.0 mph 5.0 mph 91 % 0.00 in
03:35 81.0 °F 78.1 °F 29.89 in South 3.0 mph 5.0 mph 91 % 0.00 in
03:40 81.0 °F 78.1 °F 29.89 in South 2.0 mph 5.0 mph 91 % 0.00 in
03:45 81.0 °F 78.1 °F 29.89 in South 2.0 mph 5.0 mph 91 % 0.00 in
03:46 81.0 °F 78.1 °F 29.89 in SSE 2.0 mph 5.0 mph 91 % 0.00 in
03:51 81.0 °F 78.1 °F 29.89 in SE 3.0 mph 6.0 mph 91 % 0.00 in
03:56 81.0 °F 78.1 °F 29.89 in SSW 2.0 mph 6.0 mph 91 % 0.00 in
04:01 81.0 °F 78.1 °F 29.89 in South 1.0 mph 6.0 mph 91 % 0.00 in
04:06 81.0 °F 78.1 °F 29.89 in SSW 2.0 mph 5.0 mph 91 % 0.00 in
04:11 80.8 °F 77.9 °F 29.89 in SSW 2.0 mph 3.0 mph 91 % 0.00 in
04:16 80.8 °F 78.3 °F 29.89 in South 2.0 mph 4.0 mph 92 % 0.00 in
04:21 80.8 °F 78.3 °F 29.89 in South 3.0 mph 4.0 mph 92 % 0.00 in
04:23 80.6 °F 78.1 °F 29.89 in South 2.0 mph 4.0 mph 92 % 0.00 in
04:28 80.4 °F 77.9 °F 29.89 in Calm   4.0 mph 92 % 0.00 in
04:33 80.2 °F 77.7 °F 29.89 in Calm   4.0 mph 92 % 0.00 in
04:39 80.2 °F 77.7 °F 29.89 in Calm   3.0 mph 92 % 0.00 in
04:44 80.2 °F 78.1 °F 29.89 in SSW 2.0 mph 4.0 mph 93 % 0.00 in
04:49 80.1 °F 77.9 °F 29.89 in SSW 1.0 mph 4.0 mph 93 % 0.00 in
04:54 80.1 °F 77.9 °F 29.89 in SSW 1.0 mph 4.0 mph 93 % 0.00 in
04:59 80.1 °F 77.9 °F 29.89 in SSE 1.0 mph 2.0 mph 93 % 0.00 in
05:04 79.9 °F 77.7 °F 29.88 in South 1.0 mph 2.0 mph 93 % 0.00 in
05:09 79.9 °F 78.1 °F 29.89 in Calm   3.0 mph 94 % 0.00 in
05:14 79.9 °F 77.7 °F 29.89 in Calm   3.0 mph 93 % 0.00 in
05:19 79.9 °F 78.1 °F 29.89 in South 1.0 mph 3.0 mph 94 % 0.00 in
05:24 79.9 °F 78.1 °F 29.89 in SSE 1.0 mph 2.0 mph 94 % 0.00 in
05:29 79.9 °F 78.1 °F 29.89 in SSE 2.0 mph 3.0 mph 94 % 0.00 in
05:34 79.9 °F 78.1 °F 29.89 in SSE 1.0 mph 4.0 mph 94 % 0.00 in
05:39 79.9 °F 78.1 °F 29.89 in Calm   4.0 mph 94 % 0.00 in
05:44 79.9 °F 78.1 °F 29.89 in SSE 1.0 mph 4.0 mph 94 % 0.00 in
05:49 79.7 °F 77.9 °F 29.89 in South 1.0 mph 3.0 mph 94 % 0.00 in
05:54 79.5 °F 77.7 °F 29.89 in Calm   3.0 mph 94 % 0.00 in
06:58 79.2 °F 77.5 °F 29.90 in SSE 1.0 mph 2.0 mph 95 % 0.00 in
07:03 79.2 °F 77.5 °F 29.90 in South 1.0 mph 2.0 mph 95 % 0.00 in
07:08 79.2 °F 77.5 °F 29.90 in Calm   2.0 mph 95 % 0.00 in
07:13 79.2 °F 77.5 °F 29.90 in SSE 1.0 mph 2.0 mph 95 % 0.00 in
07:18 79.2 °F 77.5 °F 29.91 in South 2.0 mph 2.0 mph 95 % 0.00 in
07:23 79.3 °F 77.7 °F 29.91 in SSE 2.0 mph 3.0 mph 95 % 0.00 in
07:28 79.5 °F 77.9 °F 29.91 in South 1.0 mph 3.0 mph 95 % 0.00 in
07:33 79.7 °F 78.1 °F 29.91 in SSE 1.0 mph 6.0 mph 95 % 0.00 in
07:38 80.1 °F 78.4 °F 29.91 in SSW 2.0 mph 6.0 mph 95 % 0.00 in
07:43 80.2 °F 78.4 °F 29.91 in South 3.0 mph 6.0 mph 94 % 0.00 in
07:48 80.8 °F 78.8 °F 29.91 in South 2.0 mph 5.0 mph 94 % 0.00 in
07:53 81.1 °F 79.0 °F 29.91 in SSE 1.0 mph 5.0 mph 93 % 0.00 in
07:58 81.7 °F 79.2 °F 29.91 in South 3.0 mph 5.0 mph 92 % 0.00 in
08:03 82.0 °F 79.5 °F 29.91 in SSE 2.0 mph 4.0 mph 92 % 0.00 in
08:08 82.6 °F 79.7 °F 29.91 in South 5.0 mph 5.0 mph 91 % 0.00 in
08:13 82.8 °F 79.5 °F 29.91 in SSE 3.0 mph 7.0 mph 90 % 0.00 in
08:18 83.1 °F 79.9 °F 29.92 in SSW 3.0 mph 7.0 mph 90 % 0.00 in
08:23 83.5 °F 79.9 °F 29.92 in South 3.0 mph 7.0 mph 89 % 0.00 in
08:28 83.8 °F 79.9 °F 29.92 in SSE 4.0 mph 6.0 mph 88 % 0.00 in
08:33 84.0 °F 79.7 °F 29.92 in South 2.0 mph 6.0 mph 87 % 0.00 in
08:38 84.4 °F 80.1 °F 29.92 in SE 5.0 mph 8.0 mph 87 % 0.00 in
08:43 84.4 °F 80.1 °F 29.92 in South 6.0 mph 9.0 mph 87 % 0.00 in
08:48 84.6 °F 79.9 °F 29.92 in SE 3.0 mph 9.0 mph 86 % 0.00 in
08:53 84.9 °F 80.2 °F 29.92 in South 3.0 mph 9.0 mph 86 % 0.00 in
08:55 84.9 °F 79.9 °F 29.92 in SSW 4.0 mph 9.0 mph 85 % 0.00 in
09:00 84.9 °F 79.9 °F 29.92 in NW 1.0 mph 11.0 mph 85 % 0.00 in
09:05 84.7 °F 79.7 °F 29.92 in SE 3.0 mph 11.0 mph 85 % 0.00 in
09:10 84.9 °F 80.2 °F 29.92 in South 2.0 mph 11.0 mph 86 % 0.00 in
09:15 85.5 °F 80.1 °F 29.93 in South 7.0 mph 13.0 mph 84 % 0.00 in
09:20 85.6 °F 80.2 °F 29.93 in SSW 3.0 mph 13.0 mph 84 % 0.00 in
09:25 86.2 °F 80.8 °F 29.93 in South 3.0 mph 13.0 mph 84 % 0.00 in
09:30 87.1 °F 81.3 °F 29.93 in SE 1.0 mph 11.0 mph 83 % 0.00 in
09:35 87.4 °F 80.4 °F 29.94 in SSE 1.0 mph 9.0 mph 80 % 0.00 in
09:40 87.1 °F 79.7 °F 29.94 in SSW 5.0 mph 9.0 mph 79 % 0.00 in
09:45 86.7 °F 80.2 °F 29.94 in SSW 2.0 mph 9.0 mph 81 % 0.00 in
09:50 86.5 °F 79.7 °F 29.94 in ENE 5.0 mph 8.0 mph 80 % 0.00 in
09:55 86.9 °F 80.1 °F 29.94 in WSW 3.0 mph 11.0 mph 80 % 0.00 in
10:00 87.6 °F 80.2 °F 29.94 in SW 8.0 mph 11.0 mph 79 % 0.00 in
10:05 88.2 °F 80.4 °F 29.94 in Calm   11.0 mph 78 % 0.00 in
10:10 88.5 °F 80.4 °F 29.94 in SW 1.0 mph 10.0 mph 77 % 0.00 in
10:15 88.5 °F 80.1 °F 29.94 in SSW 4.0 mph 9.0 mph 76 % 0.00 in
10:20 88.2 °F 79.7 °F 29.94 in SSW 6.0 mph 8.0 mph 76 % 0.00 in
10:25 88.2 °F 79.7 °F 29.94 in SW 2.0 mph 9.0 mph 76 % 0.00 in
10:30 88.7 °F 79.7 °F 29.94 in SSW 7.0 mph 10.0 mph 75 % 0.00 in
10:35 88.5 °F 79.2 °F 29.94 in SSW 5.0 mph 11.0 mph 74 % 0.00 in
10:40 88.7 °F 79.7 °F 29.94 in South 6.0 mph 11.0 mph 75 % 0.00 in
10:45 89.2 °F 80.2 °F 29.93 in SW 3.0 mph 11.0 mph 75 % 0.00 in
10:51 90.0 °F 79.7 °F 29.93 in ESE 6.0 mph 10.0 mph 72 % 0.00 in
10:56 90.3 °F 80.1 °F 29.93 in ESE 7.0 mph 10.0 mph 72 % 0.00 in
11:01 90.5 °F 80.2 °F 29.94 in SSE 4.0 mph 11.0 mph 72 % 0.00 in
11:06 91.2 °F 81.0 °F 29.94 in SSW 2.0 mph 11.0 mph 72 % 0.00 in
11:11 91.6 °F 80.4 °F 29.94 in WNW 2.0 mph 11.0 mph 70 % 0.00 in
11:16 91.4 °F 80.2 °F 29.94 in SSW 3.0 mph 7.0 mph 70 % 0.00 in
11:21 91.0 °F 79.5 °F 29.94 in SW 1.0 mph 6.0 mph 69 % 0.00 in
11:26 90.9 °F 79.7 °F 29.93 in WSW 1.0 mph 7.0 mph 70 % 0.00 in
11:31 90.9 °F 79.7 °F 29.93 in SSW 5.0 mph 9.0 mph 70 % 0.00 in
11:36 91.0 °F 79.0 °F 29.93 in SW 3.0 mph 12.0 mph 68 % 0.00 in
11:41 91.6 °F 79.5 °F 29.92 in SSE 6.0 mph 12.0 mph 68 % 0.00 in
11:46 91.6 °F 79.9 °F 29.93 in SSW 5.0 mph 12.0 mph 69 % 0.00 in
11:51 91.9 °F 80.2 °F 29.92 in SE 2.0 mph 10.0 mph 69 % 0.00 in
11:56 92.5 °F 80.4 °F 29.92 in East 2.0 mph 9.0 mph 68 % 0.00 in
12:00 92.7 °F 80.1 °F 29.92 in SSW 2.0 mph 9.0 mph 67 % 0.00 in
12:05 92.7 °F 79.7 °F 29.92 in SSW 7.0 mph 9.0 mph 66 % 0.00 in
12:10 92.5 °F 79.5 °F 29.92 in SW 5.0 mph 12.0 mph 66 % 0.00 in
12:15 92.7 °F 77.7 °F 29.92 in ESE 8.0 mph 12.0 mph 62 % 0.00 in
12:20 92.7 °F 78.6 °F 29.92 in SSE 5.0 mph 12.0 mph 64 % 0.00 in
12:25 92.5 °F 78.4 °F 29.92 in SSW 3.0 mph 9.0 mph 64 % 0.00 in
12:30 92.8 °F 79.9 °F 29.92 in SSE 1.0 mph 9.0 mph 66 % 0.00 in
12:35 92.7 °F 79.2 °F 29.92 in SW 2.0 mph 9.0 mph 65 % 0.00 in
12:40 93.0 °F 78.1 °F 29.92 in South 2.0 mph 9.0 mph 62 % 0.00 in
12:45 93.2 °F 78.8 °F 29.92 in SSW 3.0 mph 9.0 mph 63 % 0.00 in
12:50 93.4 °F 78.8 °F 29.91 in West 1.0 mph 8.0 mph 63 % 0.00 in
12:55 93.6 °F 79.0 °F 29.91 in South 2.0 mph 9.0 mph 63 % 0.00 in
13:00 93.6 °F 79.0 °F 29.91 in SW 4.0 mph 9.0 mph 63 % 0.00 in
13:05 93.9 °F 79.3 °F 29.91 in WSW 2.0 mph 9.0 mph 63 % 0.00 in
13:08 94.3 °F 79.2 °F 29.91 in SSW 6.0 mph 9.0 mph 62 % 0.00 in
13:13 94.5 °F 79.3 °F 29.91 in South 5.0 mph 10.0 mph 62 % 0.00 in
13:18 94.6 °F 78.1 °F 29.91 in SSW 3.0 mph 10.0 mph 59 % 0.00 in
13:23 94.8 °F 78.8 °F 29.91 in SE 1.0 mph 10.0 mph 60 % 0.00 in
13:28 94.5 °F 77.9 °F 29.90 in SSW 1.0 mph 10.0 mph 59 % 0.00 in
13:33 94.3 °F 78.3 °F 29.90 in ESE 7.0 mph 10.0 mph 60 % 0.00 in
13:38 94.5 °F 77.9 °F 29.90 in SSW 1.0 mph 10.0 mph 59 % 0.00 in
13:43 94.3 °F 79.2 °F 29.90 in SSW 2.0 mph 10.0 mph 62 % 0.00 in
13:48 94.6 °F 78.6 °F 29.89 in SSE 5.0 mph 10.0 mph 60 % 0.00 in
13:53 95.0 °F 79.3 °F 29.89 in South 4.0 mph 9.0 mph 61 % 0.00 in
13:58 95.9 °F 78.8 °F 29.89 in South 4.0 mph 9.0 mph 58 % 0.00 in
14:03 96.3 °F 77.5 °F 29.89 in SSW 7.0 mph 9.0 mph 55 % 0.00 in
14:08 96.3 °F 78.1 °F 29.88 in West 2.0 mph 8.0 mph 56 % 0.00 in
14:13 96.3 °F 78.1 °F 29.88 in South 1.0 mph 9.0 mph 56 % 0.00 in
14:18 96.3 °F 77.5 °F 29.88 in SSW 3.0 mph 13.0 mph 55 % 0.00 in
14:23 96.3 °F 77.5 °F 29.88 in South 2.0 mph 13.0 mph 55 % 0.00 in
14:28 96.8 °F 79.0 °F 29.88 in SSW 4.0 mph 13.0 mph 57 % 0.00 in
14:33 97.5 °F 79.2 °F 29.88 in NNW 2.0 mph 9.0 mph 56 % 0.00 in
14:38 97.5 °F 77.0 °F 29.88 in SE 4.0 mph 9.0 mph 52 % 0.00 in
14:43 97.5 °F 79.2 °F 29.88 in South 3.0 mph 8.0 mph 56 % 0.00 in
14:48 97.0 °F 78.1 °F 29.87 in South 5.0 mph 8.0 mph 55 % 0.00 in
14:53 95.7 °F 77.0 °F 29.87 in ESE 3.0 mph 11.0 mph 55 % 0.00 in
14:58 95.2 °F 77.5 °F 29.87 in ESE 4.0 mph 11.0 mph 57 % 0.00 in
15:03 94.8 °F 77.7 °F 29.86 in SE 5.0 mph 11.0 mph 58 % 0.00 in
15:09 95.2 °F 78.1 °F 29.86 in South 8.0 mph 9.0 mph 58 % 0.00 in
15:14 95.5 °F 76.8 °F 29.86 in SSW 4.0 mph 9.0 mph 55 % 0.00 in
15:19 96.1 °F 78.4 °F 29.86 in SW 5.0 mph 9.0 mph 57 % 0.00 in
15:24 96.4 °F 79.2 °F 29.86 in East 8.0 mph 9.0 mph 58 % 0.00 in
15:29 96.3 °F 76.8 °F 29.86 in SE 3.0 mph 8.0 mph 54 % 0.00 in
15:34 96.3 °F 77.5 °F 29.85 in SSE 6.0 mph 8.0 mph 55 % 0.00 in
15:39 96.6 °F 77.7 °F 29.85 in South 3.0 mph 9.0 mph 55 % 0.00 in
15:44 96.4 °F 76.5 °F 29.85 in SE 4.0 mph 9.0 mph 53 % 0.00 in
15:49 96.8 °F 79.0 °F 29.85 in SE 7.0 mph 9.0 mph 57 % 0.00 in
15:54 96.8 °F 76.3 °F 29.84 in South 3.0 mph 8.0 mph 52 % 0.00 in
15:59 96.6 °F 76.6 °F 29.84 in Calm   8.0 mph 53 % 0.00 in
16:04 96.8 °F 76.8 °F 29.84 in SSE 2.0 mph 8.0 mph 53 % 0.00 in
16:09 97.2 °F 76.6 °F 29.84 in ESE 3.0 mph 5.0 mph 52 % 0.00 in
16:14 97.0 °F 75.9 °F 29.84 in SE 6.0 mph 7.0 mph 51 % 0.00 in
16:19 96.3 °F 76.8 °F 29.84 in SSE 5.0 mph 7.0 mph 54 % 0.00 in
16:24 95.5 °F 77.4 °F 29.84 in South 3.0 mph 7.0 mph 56 % 0.00 in
16:29 95.2 °F 77.5 °F 29.84 in South 3.0 mph 8.0 mph 57 % 0.00 in
16:34 94.8 °F 77.7 °F 29.84 in SSW 4.0 mph 8.0 mph 58 % 0.00 in
16:39 94.5 °F 77.4 °F 29.83 in SSW 1.0 mph 8.0 mph 58 % 0.00 in
16:44 94.5 °F 77.9 °F 29.84 in South 4.0 mph 8.0 mph 59 % 0.00 in
16:49 95.2 °F 79.5 °F 29.83 in SE 3.0 mph 8.0 mph 61 % 0.00 in
16:54 95.0 °F 77.9 °F 29.83 in SSE 4.0 mph 6.0 mph 58 % 0.00 in
16:59 94.6 °F 77.5 °F 29.83 in ESE 4.0 mph 6.0 mph 58 % 0.00 in
17:04 94.3 °F 78.3 °F 29.83 in SE 2.0 mph 6.0 mph 60 % 0.00 in
17:09 94.3 °F 78.3 °F 29.83 in South 4.0 mph 6.0 mph 60 % 0.00 in
17:14 94.8 °F 78.3 °F 29.83 in SSE 4.0 mph 6.0 mph 59 % 0.00 in
17:19 95.4 °F 77.7 °F 29.83 in East 5.0 mph 8.0 mph 57 % 0.00 in
17:24 95.0 °F 77.4 °F 29.83 in SSE 3.0 mph 9.0 mph 57 % 0.00 in
17:29 95.4 °F 78.3 °F 29.83 in SE 3.0 mph 9.0 mph 58 % 0.00 in
17:34 95.5 °F 77.4 °F 29.83 in ESE 4.0 mph 9.0 mph 56 % 0.00 in
17:39 95.2 °F 76.5 °F 29.83 in ESE 3.0 mph 8.0 mph 55 % 0.00 in
17:44 95.0 °F 77.9 °F 29.83 in SSW 5.0 mph 8.0 mph 58 % 0.00 in
17:49 95.0 °F 77.4 °F 29.83 in Calm   6.0 mph 57 % 0.00 in
17:54 95.5 °F 77.4 °F 29.83 in Calm   6.0 mph 56 % 0.00 in
17:59 96.6 °F 77.2 °F 29.83 in South 3.0 mph 6.0 mph 54 % 0.00 in
18:04 96.6 °F 77.2 °F 29.82 in SSW 5.0 mph 9.0 mph 54 % 0.00 in
18:09 96.6 °F 76.1 °F 29.82 in South 4.0 mph 9.0 mph 52 % 0.00 in
18:14 96.6 °F 76.6 °F 29.82 in South 2.0 mph 9.0 mph 53 % 0.00 in
18:19 96.6 °F 75.6 °F 29.82 in SE 4.0 mph 9.0 mph 51 % 0.00 in
18:24 96.6 °F 76.6 °F 29.82 in SW 2.0 mph 9.0 mph 53 % 0.00 in
18:29 96.4 °F 75.9 °F 29.81 in SSW 3.0 mph 8.0 mph 52 % 0.00 in
18:34 95.9 °F 75.9 °F 29.81 in South 5.0 mph 7.0 mph 53 % 0.00 in
18:39 95.5 °F 76.3 °F 29.81 in SE 2.0 mph 7.0 mph 54 % 0.00 in
18:44 95.5 °F 77.4 °F 29.81 in SSW 7.0 mph 7.0 mph 56 % 0.00 in
18:49 95.4 °F 77.7 °F 29.81 in SSW 6.0 mph 9.0 mph 57 % 0.00 in
18:54 95.2 °F 77.5 °F 29.81 in SSW 7.0 mph 9.0 mph 57 % 0.00 in
18:59 94.6 °F 77.5 °F 29.81 in SW 4.0 mph 10.0 mph 58 % 0.00 in
19:04 94.6 °F 77.0 °F 29.81 in SW 3.0 mph 10.0 mph 57 % 0.00 in
19:09 94.3 °F 76.6 °F 29.81 in SSW 2.0 mph 10.0 mph 57 % 0.00 in
19:14 93.9 °F 76.8 °F 29.82 in SSW 4.0 mph 9.0 mph 58 % 0.00 in
19:19 93.6 °F 77.0 °F 29.82 in SW 3.0 mph 10.0 mph 59 % 0.00 in
19:24 93.0 °F 77.0 °F 29.82 in South 5.0 mph 10.0 mph 60 % 0.00 in
19:29 92.7 °F 77.2 °F 29.82 in SE 7.0 mph 10.0 mph 61 % 0.00 in
19:34 92.1 °F 77.2 °F 29.82 in SSE 4.0 mph 12.0 mph 62 % 0.00 in
19:39 91.9 °F 77.5 °F 29.82 in South 6.0 mph 12.0 mph 63 % 0.00 in
19:45 91.6 °F 77.2 °F 29.82 in SSE 4.0 mph 12.0 mph 63 % 0.00 in
19:50 91.2 °F 77.4 °F 29.82 in SSW 3.0 mph 10.0 mph 64 % 0.00 in
19:54 90.9 °F 77.0 °F 29.82 in South 4.0 mph 10.0 mph 64 % 0.00 in
20:00 90.7 °F 77.4 °F 29.82 in SSE 3.0 mph 10.0 mph 65 % 0.00 in
20:05 90.3 °F 77.0 °F 29.82 in ESE 4.0 mph 10.0 mph 65 % 0.00 in
20:10 90.1 °F 76.8 °F 29.82 in South 7.0 mph 10.0 mph 65 % 0.00 in
20:15 90.0 °F 77.0 °F 29.82 in SE 5.0 mph 7.0 mph 66 % 0.00 in
20:20 89.8 °F 76.8 °F 29.83 in SE 3.0 mph 9.0 mph 66 % 0.00 in
20:25 89.6 °F 76.6 °F 29.82 in SE 5.0 mph 10.0 mph 66 % 0.00 in
20:30 89.4 °F 76.6 °F 29.82 in SSE 5.0 mph 10.0 mph 66 % 0.00 in
20:35 89.2 °F 76.8 °F 29.82 in SSW 4.0 mph 10.0 mph 67 % 0.00 in
20:40 89.1 °F 76.6 °F 29.83 in South 3.0 mph 10.0 mph 67 % 0.00 in
20:45 88.9 °F 77.0 °F 29.83 in SSE 4.0 mph 11.0 mph 68 % 0.00 in
20:50 88.7 °F 76.8 °F 29.83 in SSW 2.0 mph 11.0 mph 68 % 0.00 in
20:55 88.5 °F 76.6 °F 29.83 in SSE 4.0 mph 11.0 mph 68 % 0.00 in
21:00 88.3 °F 76.5 °F 29.83 in ESE 5.0 mph 9.0 mph 68 % 0.00 in
21:05 88.2 °F 76.6 °F 29.84 in SW 3.0 mph 11.0 mph 69 % 0.00 in
21:10 88.0 °F 76.5 °F 29.84 in SSW 3.0 mph 12.0 mph 69 % 0.00 in
21:15 88.0 °F 77.0 °F 29.84 in ESE 7.0 mph 12.0 mph 70 % 0.00 in
21:20 87.8 °F 76.8 °F 29.85 in SSE 3.0 mph 12.0 mph 70 % 0.00 in
21:25 87.6 °F 77.0 °F 29.85 in South 2.0 mph 12.0 mph 71 % 0.00 in
21:30 87.4 °F 76.8 °F 29.85 in SE 5.0 mph 12.0 mph 71 % 0.00 in
21:35 87.3 °F 77.2 °F 29.85 in SE 5.0 mph 8.0 mph 72 % 0.00 in
21:40 87.1 °F 77.4 °F 29.85 in SSW 3.0 mph 9.0 mph 73 % 0.00 in
21:45 86.9 °F 77.2 °F 29.85 in SSE 10.0 mph 10.0 mph 73 % 0.00 in
21:50 86.7 °F 77.4 °F 29.85 in South 7.0 mph 13.0 mph 74 % 0.00 in
21:55 86.5 °F 77.2 °F 29.86 in SSW 7.0 mph 13.0 mph 74 % 0.00 in
21:59 86.5 °F 77.7 °F 29.86 in SSE 6.0 mph 13.0 mph 75 % 0.00 in
22:04 86.4 °F 77.9 °F 29.86 in SE 4.0 mph 13.0 mph 76 % 0.00 in
22:09 86.2 °F 77.7 °F 29.86 in SE 4.0 mph 10.0 mph 76 % 0.00 in
22:14 86.0 °F 77.9 °F 29.86 in South 7.0 mph 9.0 mph 77 % 0.00 in
22:19 85.8 °F 78.1 °F 29.86 in SSE 6.0 mph 9.0 mph 78 % 0.00 in
22:24 85.6 °F 78.4 °F 29.86 in SSE 8.0 mph 10.0 mph 79 % 0.00 in
22:29 85.5 °F 78.6 °F 29.86 in South 5.0 mph 12.0 mph 80 % 0.00 in
22:34 85.3 °F 78.4 °F 29.86 in SW 10.0 mph 12.0 mph 80 % 0.00 in
22:39 85.1 °F 78.3 °F 29.86 in SSE 6.0 mph 12.0 mph 80 % 0.00 in
22:44 84.9 °F 78.4 °F 29.87 in SSW 3.0 mph 11.0 mph 81 % 0.00 in
22:49 84.7 °F 78.3 °F 29.87 in SSW 3.0 mph 10.0 mph 81 % 0.00 in
22:54 84.7 °F 78.3 °F 29.87 in SSE 2.0 mph 10.0 mph 81 % 0.00 in
22:59 84.6 °F 78.1 °F 29.87 in SSE 4.0 mph 10.0 mph 81 % 0.00 in
23:04 84.4 °F 78.3 °F 29.87 in South 4.0 mph 8.0 mph 82 % 0.00 in
23:09 84.4 °F 78.3 °F 29.87 in SSE 6.0 mph 7.0 mph 82 % 0.00 in
23:14 84.2 °F 78.1 °F 29.87 in SSW 5.0 mph 8.0 mph 82 % 0.00 in
23:19 84.0 °F 77.9 °F 29.86 in South 4.0 mph 8.0 mph 82 % 0.00 in
23:24 84.0 °F 78.3 °F 29.86 in South 4.0 mph 9.0 mph 83 % 0.00 in
23:30 83.8 °F 78.1 °F 29.86 in South 6.0 mph 9.0 mph 83 % 0.00 in
23:35 83.8 °F 78.1 °F 29.86 in SSW 7.0 mph 9.0 mph 83 % 0.00 in
23:40 83.7 °F 78.3 °F 29.86 in SSE 3.0 mph 9.0 mph 84 % 0.00 in
23:45 83.7 °F 78.3 °F 29.86 in SSE 4.0 mph 8.0 mph 84 % 0.00 in
23:50 83.7 °F 78.3 °F 29.85 in SSE 6.0 mph 10.0 mph 84 % 0.00 in
23:55 83.7 °F 78.6 °F 29.85 in SSE 4.0 mph 10.0 mph 85 % 0.00 in
Spring, Texas: Villages of Bridgestone
Compliments of Weather Underground - 2.75 mb

Script developed by  Jim McMurry - jmcmurry@mwt.net Adapted for the template by  Wim van der Kuil - Leuven-Template.eu

You find our weather info also at:

UK Metoffice

WeatherCloud

Weather Underground

Mid-South Weather Network

AWEKAS

Citizen Weather Observer Program (CWOP)

HAMweather, WeatherForYou, PWS Weather

Equipment we use:

Weather-station
Davis Vantage Vue

Weather-program
Meteohub

Weather-server
Debian 7.9 x86 (Guest)

Provider
DreamHost

Davis Vantage Vue

Meteohub

Debian 7.9 x86 (Guest)

DreamHost